DateTimeUTC,F1_A11,F1_S11,BsB_S11,BsG_S11,BsR_S11,BbsB_S11,BbsG_S11,BbsR_S11,BaB_A11,BaG_A11,BaR_A11,Tu_S11,T_S11,Uu_S11,U_S11,P_S11,T1_A11
2021-03-15T22:00:00Z,00000200,21000000,,,,,,,0000.48,0000.22,-000.17,17.3,24.5,00.6,00.4,0647.5,31.0
2021-03-15T22:01:00Z,00000200,21000000,,,,,,,-000.10,0000.14,0000.31,17.3,24.5,00.6,00.4,0647.5,31.0
2021-03-15T22:02:00Z,00000200,21000000,,,,,,,0000.23,-000.15,0000.17,17.3,24.5,00.6,00.4,0647.5,31.0
2021-03-15T22:03:00Z,00000200,61000000,,,,,,,0000.11,0000.14,0000.18,17.3,24.6,00.6,00.4,0647.5,31.0
2021-03-15T22:04:00Z,00000200,41000000,0000.58,0000.36,0000.32,-000.13,0000.26,0000.23,0000.96,0000.96,0000.46,17.4,24.4,00.6,00.4,0648.4,31.0
2021-03-15T22:05:00Z,00000200,01000000,0000.39,0000.31,0000.27,0000.14,-000.16,0000.18,-000.50,-000.88,-000.00,17.5,24.3,00.7,00.4,0648.5,30.9
2021-03-15T22:06:00Z,00000200,01000000,0000.54,0000.30,0000.34,-000.15,0000.13,0000.17,0000.36,0000.77,0000.02,17.5,24.3,00.4,00.3,0648.4,30.9
2021-03-15T22:07:00Z,00000200,01000000,0000.51,0000.44,0000.35,0000.04,0000.24,0000.35,0000.16,-000.12,0000.53,17.5,24.3,00.6,00.4,0648.4,30.9
2021-03-15T22:08:00Z,00000200,01000000,0000.97,0000.38,0000.36,0000.00,0000.28,0000.33,0000.53,0000.90,0000.24,17.5,24.3,00.6,00.4,0648.3,30.9
2021-03-15T22:09:00Z,00000200,01000000,0000.37,0000.33,0000.28,0000.17,0000.19,0000.25,0000.76,0000.23,0000.36,17.4,24.3,00.8,00.5,0648.4,30.9
2021-03-15T22:10:00Z,00000200,01000000,0000.75,0000.17,0000.08,0000.41,-000.06,0000.07,0001.44,0001.41,0001.43,17.5,24.3,00.9,00.6,0648.5,31.0
2021-03-15T22:11:00Z,00000200,01000000,0000.85,0000.10,0000.36,-000.08,0000.20,0000.22,0000.89,0001.11,0000.42,17.5,24.3,01.0,00.7,0648.3,30.9
2021-03-15T22:12:00Z,00000200,01000000,0000.79,0000.34,0000.21,0000.21,0000.19,0000.21,-000.56,-000.46,-000.44,17.5,24.3,00.8,00.5,0648.4,31.0
2021-03-15T22:13:00Z,00000200,01000000,0000.69,0000.25,0000.58,0000.46,-000.09,0000.19,0001.80,0001.69,0001.52,17.5,24.3,01.0,00.6,0648.5,31.0
2021-03-15T22:14:00Z,00000200,01000000,0000.41,0000.22,0000.08,0000.03,0000.10,-000.05,-000.53,-000.62,-000.30,17.6,24.3,01.2,00.8,0648.4,31.0
2021-03-15T22:15:00Z,00000200,01000000,0000.67,0000.05,0000.43,0000.44,0000.08,-000.07,0000.67,0000.72,0000.47,17.6,24.3,01.0,00.7,0648.5,31.0
2021-03-15T22:16:00Z,00000200,01000000,0000.78,0000.29,0000.34,0000.08,0000.20,0000.02,-000.55,-000.75,-000.20,17.6,24.3,01.0,00.6,0648.5,31.0
2021-03-15T22:17:00Z,00000200,01000000,0000.60,0000.27,0000.40,0000.08,0000.22,0000.06,0001.95,0002.03,0001.41,17.6,24.3,01.0,00.7,0648.4,31.0
2021-03-15T22:18:00Z,00000200,01000000,0000.53,0000.40,0000.48,0000.21,0000.10,0000.13,0001.66,0001.66,0001.20,17.5,24.3,01.3,00.9,0648.5,31.0
2021-03-15T22:19:00Z,00000200,01000000,0000.76,0000.42,0000.69,-000.07,0000.20,0000.27,0000.34,0000.17,0000.23,17.5,24.3,01.5,01.0,0648.5,30.9
2021-03-15T22:20:00Z,00000200,01000000,0000.60,0000.01,0000.55,-000.15,0000.16,0000.41,0000.22,0000.46,0000.49,17.5,24.3,01.3,00.9,0648.5,31.0
2021-03-15T22:21:00Z,00000200,01000000,0000.06,0000.21,0000.31,0000.23,0000.22,0000.27,-000.95,-001.38,-000.81,17.5,24.3,01.3,00.8,0648.6,31.0
2021-03-15T22:22:00Z,00000200,01000000,0000.75,0000.14,0000.34,0000.01,0000.07,0000.13,-000.23,0000.47,-000.45,17.5,24.3,01.0,00.7,0648.5,30.9
2021-03-15T22:23:00Z,00000200,01000000,0001.14,0000.18,0000.25,0000.39,-000.08,0000.23,-000.33,-001.05,0000.09,17.5,24.3,00.9,00.6,0648.4,31.0
2021-03-15T22:24:00Z,00000200,01000000,0000.62,0000.13,0000.22,0000.63,0000.20,0000.16,-000.48,-000.14,-000.03,17.5,24.3,00.8,00.5,0648.5,31.0
2021-03-15T22:25:00Z,00000200,01000000,0000.47,0000.61,0000.40,0000.30,0000.06,0000.05,0000.48,0000.90,0000.21,17.5,24.3,00.7,00.5,0648.5,30.9
2021-03-15T22:26:00Z,00000200,01000000,0000.37,0000.17,0000.16,-000.02,0000.14,0000.18,0001.13,0000.74,0000.90,17.5,24.3,00.7,00.5,0648.5,31.0
2021-03-15T22:27:00Z,00000200,01000000,0000.36,0000.52,0000.20,-000.10,0000.12,0000.13,0000.82,0000.28,0000.74,17.5,24.3,00.8,00.5,0648.5,31.0
2021-03-15T22:28:00Z,00000200,01000000,0000.22,0000.38,0000.43,-000.11,0000.37,0000.33,0000.55,0001.50,0000.62,17.6,24.3,01.0,00.6,0648.5,31.0
2021-03-15T22:29:00Z,00000200,01000000,0000.98,0000.59,0000.33,-000.11,0000.06,0000.10,0000.40,-000.10,0000.07,17.6,24.3,00.9,00.6,0648.5,31.0
2021-03-15T22:30:00Z,00000200,01000000,0000.91,0000.27,0000.45,0000.18,0000.32,0000.23,0000.63,0000.20,0000.24,17.6,24.3,00.9,00.6,0648.5,30.9
2021-03-15T22:31:00Z,00000200,01000000,0000.20,0000.37,0000.44,0000.20,0000.26,0000.18,0000.04,0000.76,0000.39,17.6,24.3,00.9,00.6,0648.5,30.9
2021-03-15T22:32:00Z,00000200,01000000,0000.48,0000.33,0000.62,0000.50,0000.27,0000.63,0000.44,0000.07,0000.23,17.6,24.3,00.8,00.5,0648.5,31.0
2021-03-15T22:33:00Z,00000200,01000000,0000.34,0000.37,0000.41,0000.10,0000.06,0000.29,0000.24,0000.37,0000.57,17.6,24.3,00.9,00.6,0648.6,31.0
2021-03-15T22:34:00Z,00000200,01000000,0001.04,0000.53,0000.46,0000.37,0000.08,0000.27,0000.75,0000.82,0000.23,17.5,24.3,01.1,00.7,0648.5,31.0
2021-03-15T22:35:00Z,00000200,01000000,0001.08,0000.07,0000.56,0000.35,0000.20,0000.17,0000.11,-000.25,0000.09,17.5,24.3,00.9,00.6,0648.5,31.0
2021-03-15T22:36:00Z,00000200,01000000,0000.94,0000.27,0000.20,0000.11,0000.11,0000.31,-000.04,0000.07,0000.08,17.5,24.3,00.9,00.6,0648.6,31.0
2021-03-15T22:37:00Z,00000200,01000000,0000.41,0000.34,0000.60,-000.11,0000.25,0000.24,-000.40,-000.02,0000.05,17.5,24.3,00.8,00.5,0648.6,31.0
2021-03-15T22:38:00Z,00000200,01000000,0000.67,0000.22,0000.10,0000.10,0000.34,0000.11,0000.70,0000.28,0000.39,17.5,24.3,00.7,00.5,0648.6,31.0
2021-03-15T22:39:00Z,00000200,01000000,0000.81,0000.38,0000.10,0000.41,0000.23,0000.37,-000.37,-000.59,-000.20,17.5,24.3,00.7,00.5,0648.6,31.0
2021-03-15T22:40:00Z,00000200,01000000,0000.45,0000.32,0000.14,0000.42,0000.10,-000.06,0000.75,0001.09,0000.48,17.5,24.3,00.6,00.4,0648.5,30.9
2021-03-15T22:41:00Z,00000200,01000000,0000.43,0000.05,0000.30,-000.02,0000.36,0000.19,-000.49,-000.39,-000.21,17.6,24.3,00.5,00.3,0648.4,31.0
2021-03-15T22:42:00Z,00000200,01000000,0000.27,0000.18,0000.40,-000.23,0000.07,0000.25,0000.02,0000.05,0000.11,17.6,24.3,00.5,00.3,0648.6,31.0
2021-03-15T22:43:00Z,00000200,01000000,0000.80,0000.36,0000.36,-000.26,0000.02,0000.07,0000.67,0000.34,0000.20,17.7,24.3,00.5,00.3,0648.6,31.0
2021-03-15T22:44:00Z,00000200,01000000,0000.93,0000.56,0000.40,-000.01,0000.40,0000.08,0000.18,0000.13,0000.07,17.7,24.3,00.5,00.4,0648.6,31.0
2021-03-15T22:45:00Z,00000200,01000000,0000.36,0000.09,0000.07,-000.24,0000.04,-000.24,-000.24,-000.22,0000.14,17.7,24.3,00.6,00.4,0648.7,31.0
2021-03-15T22:46:00Z,00000200,01000000,0000.62,0000.24,0000.26,-000.06,0000.02,0000.00,-000.42,-000.24,-000.53,17.7,24.3,00.4,00.3,0648.6,31.0
2021-03-15T22:47:00Z,00000200,01000000,0000.12,0000.31,0000.21,0000.25,0000.10,0000.18,-000.20,0000.16,0000.29,17.7,24.3,00.2,00.2,0648.7,31.0
2021-03-15T22:48:00Z,00000200,01000000,0000.21,0000.30,0000.40,-000.14,-000.10,0000.10,0000.77,0000.91,0000.76,17.6,24.4,00.4,00.2,0648.7,31.0
2021-03-15T22:49:00Z,00000200,01000000,0000.76,0000.35,0000.21,0000.65,0000.15,0000.40,0000.36,-000.06,-000.04,17.6,24.3,00.5,00.3,0648.7,31.0
2021-03-15T22:50:00Z,00000200,01000000,-000.27,-000.01,0000.40,-000.04,0000.17,0000.39,-000.10,-000.11,-000.09,17.6,24.3,00.4,00.3,0648.8,30.9
2021-03-15T22:51:00Z,00000200,01000000,0000.27,0000.04,0000.35,-000.07,0000.15,0000.41,0000.58,0000.27,0000.70,17.6,24.3,00.3,00.2,0648.7,30.9
2021-03-15T22:52:00Z,00000200,01000000,0000.73,0000.11,0000.32,0000.31,0000.17,0000.36,0000.43,0001.04,0000.44,17.6,24.3,00.4,00.3,0648.7,30.9
2021-03-15T22:53:00Z,00000200,01000000,0000.10,0000.32,0000.51,-000.09,0000.16,0000.24,0000.16,0000.00,-000.05,17.5,24.3,00.5,00.3,0648.8,30.9
2021-03-15T22:54:00Z,00000200,01000000,0000.15,0000.34,0000.13,0000.03,0000.08,0000.08,-000.34,-000.39,0000.13,17.6,24.3,00.3,00.2,0648.7,30.9
2021-03-15T22:55:00Z,00000200,01000000,0000.23,0000.27,0000.40,-000.00,-000.10,0000.13,0001.41,0001.19,0001.36,17.5,24.3,00.3,00.2,0648.7,30.9
2021-03-15T22:56:00Z,00000200,01000000,0000.64,0000.39,0000.37,0000.24,-000.01,0000.49,0000.41,0000.40,-000.45,17.5,24.3,00.6,00.4,0648.7,30.9
2021-03-15T22:57:00Z,00000200,41000000,,,,,,,0001.41,0001.73,0001.32,17.6,24.3,00.9,00.6,0648.6,30.9
2021-03-15T22:58:00Z,00000200,61000000,,,,,,,-001.19,-000.97,-000.69,17.2,24.4,00.6,00.4,0647.8,30.9
2021-03-15T22:59:00Z,00000200,21000000,,,,,,,-000.26,-000.94,-000.50,17.2,24.5,00.6,00.4,0647.8,30.9
